Regional Weather Roundup
Issued by NWS Northern Indiana

Home | Current Version | Previous Version | Text Only | Print | Product List | Glossary On
Versions: 1 2 3 4 5 6 7 8 9 10 11 12 13 14 15 16 17 18 19 20 21 22 23 24 25 26 27 28 29 30 31 32 33 34 35 36 37 38 39 40 41 42 43 44 45 46 47 48 49 50
000
ASUS43 KIWX 270710
RWRIWX

KIWX WEATHER ROUNDUP
NATIONAL WEATHER SERVICE NORTHERN INDIANA
200 AM EST FRI FEB 27 2015

NOTE: "FAIR" INDICATES FEW OR NO CLOUDS BELOW 12,000 FEET WITH NO
SIGNIFICANT WEATHER AND/OR OBSTRUCTIONS TO VISIBILITY.

* THESE STATIONS ARE NOT UNDER NWS QUALITY CONTROL. THEY ALSO MAY NOT
  REPORT WEATHER SUCH AS PRECIPITATION OR FOG.

INZ001>027-270800-
NORTHERN INDIANA

CITY           SKY/WX    TMP DP  RH WIND       PRES   REMARKS
GARY*          PTCLDY     8  -7  50 W8        30.43S WCI  -5
VALPARAISO     FLURRIES   5  -3  69 W8        30.39S WCI  -8
MICHIGAN CITY* LGT SNOW  12   5  73 E3        30.41S
LAPORTE*       LGT SNOW  10   7  87 CALM      30.39S
KNOX*            N/A      9  -4  56 CALM      30.40S
SOUTH BEND     CLEAR      4  -4  69 N7        30.40R WCI  -8
GOSHEN         PTCLDY    -5 -11  75 CALM      30.38R
MONTICELLO*    CLOUDY     5   0  81 W3        30.41S
LOGANSPORT*    FLURRIES   3   0  85 W6        30.41R WCI  -8
ROCHESTER*     CLOUDY    12   9  85 SW3       30.39S
WARSAW*        CLOUDY     1  -4  78 CALM      30.38R
ANGOLA*        CLEAR    -11 -15  84 CALM      30.35R
FORT WAYNE     PTCLDY     3  -6  66 NW5       30.38R WCI  -6
HUNTINGTON*    CLEAR      3  -7  63 CALM      30.38R
PERU/GRISSOM   CLOUDY     4   0  82 W6        30.38R WCI  -6
MARION*        CLEAR      1  -5  77 NW6       30.39R WCI -11

$$
INZ028>050-270800-
CENTRAL INDIANA

CITY           SKY/WX    TMP DP  RH WIND       PRES   REMARKS
LAFAYETTE      MOCLDY     5  -2  72 NW8       30.43R WCI  -8
KOKOMO*        CLEAR      3  -2  78 W5        30.39R WCI  -6
MUNCIE*        CLEAR      2  -4  76 NW5       30.37R WCI  -8
INDIANAPOLIS   CLEAR      4  -1  80 NW7       30.40R WCI  -8

$$
MIZ043>046-050>051-056>058-064>065-071>073-077>080-270800-
SOUTHWEST LOWER MICHIGAN

CITY           SKY/WX    TMP DP  RH WIND       PRES   REMARKS
BATTLE CREEK   CLEAR      0 -10  63 N3        30.37R
BENTON HARBOR  CLOUDY     4  -7  60 NE6       30.41R WCI  -7
COLDWATER*     CLEAR     -8 -12  81 CALM      30.35S
HILLSDALE*     CLEAR     -3  -8  79 CALM      30.32R
HOLLAND        CLEAR     -1 -11  62 E3        30.41S
GRAND RAPIDS   CLEAR      1 -11  57 NE3       30.39S
KALAMAZOO      CLEAR     -1  -9  68 N5        30.38R WCI -11
STURGIS*       CLEAR      0  -9  65 NW3       30.36R
THREE RIVERS*  FAIR      -7 -12  79 CALM      30.39R

$$
OHZ001>008-015>018-024>025-270800-
NORTHWEST OHIO

CITY           SKY/WX    TMP DP  RH WIND       PRES   REMARKS
WAUSEON*       FAIR       0  -6  78 NW3       30.37R
DEFIANCE       CLEAR      1  -7  68 CALM      30.38R
FINDLAY        CLOUDY     6  -1  73 CALM      30.34R
TOLEDO EXPRESS CLEAR     -2  -6  83 CALM      30.37R
TOLEDO METCALF CLEAR      5  -2  72 CALM      30.38R
LIMA           CLOUDY     8   4  83 CALM      30.34R FOG

$$
AND FOR LAKE MICHIGAN COASTAL AND OPEN LAKE BUOY OBSERVATIONS

STATION/POSITION TEMP    WIND        PRES    VSBY  WAVE
                 AIR SEA DIR/SP/G                  HT/PER
                 (F)     (DEG/KT/KT) (MB)    (MI)  (FT/S)
CALUMET HARBOR     9     280/  7/ 10 1028.8S
MICHIGAN CITY     11      40/  6/  6   N/A
SAINT JOSEPH       6      CALM  /  5 1030.5R

$$
&&


USA.gov is the U.S. government's official web portal to all federal, state and local government web resources and services.